Regional Weather Roundup
Issued by NWS

Home | Current Version | Previous Version | Text Only | Print | Product List | Glossary On
Versions: 1 2 3 4 5 6 7 8 9 10 11 12 13 14 15 16 17 18 19 20 21 22 23 24 25 26 27 28 29 30 31 32 33 34 35 36 37 38 39 40 41 42 43 44 45 46 47 48 49 50
000
ASUS44 KLUB 260201
RWRTX
WEST TEXAS WEATHER ROUNDUP
NATIONAL WEATHER SERVICE LUBBOCK TX
800 PM CST TUE NOV 25 2014

NOTE: "FAIR" INDICATES FEW OR NO CLOUDS BELOW 12,000 FEET WITH NO
SIGNIFICANT WEATHER AND/OR OBSTRUCTIONS TO VISIBILITY.

TXZ004-006>008-010-012-014-016-OKZ002-260300-
TEXAS PANHANDLE/OKLAHOMA PANHANDLE

CITY           SKY/WX    TMP DP  RH WIND       PRES   REMARKS
AMARILLO       CLEAR     49  13  23 W12       29.98S
BORGER         CLEAR     45  10  24 SW8       29.96S
CANADIAN       MOCLDY    41  16  36 SW5       29.96S
DALHART        CLEAR     43  13  29 W10       29.97R
DUMAS            N/A     34  11  37 SW9       29.96R WCI  27
GUYMON         CLEAR     38  14  37 SW9       29.93S WCI  31
$$

TXZ026-029-035-045-048-260300-
SOUTHERN PANHANDLE/SOUTH PLAINS/ROLLING PLAINS

CITY           SKY/WX    TMP DP  RH WIND       PRES   REMARKS
CHILDRESS      CLEAR     47  16  29 S13       30.00F
LUBBOCK        CLEAR     48  14  25 SW22      30.04S
$$

TXZ052-054-060>062-072-078-127-140-154-169-260300-
PERMIAN BASIN/CONCHO VALLEY/BIG COUNTRY/EDWARDS PLATEAU

CITY           SKY/WX    TMP DP  RH WIND       PRES   REMARKS
ABILENE        CLEAR     46  24  42 S9        30.13F
JUNCTION       CLEAR     46  23  40 S5        30.22R
MIDLAND        CLEAR     47  14  26 SW12      30.13F
ODESSA         CLEAR     45  13  27 SW10      30.14F
SAN ANGELO     CLEAR     44  21  40 SW9       30.19F
WINK           CLEAR     50   8  18 W12       30.16F
$$

TXZ055-058-074-075-080-082-260300-
FAR WEST/SOUTHWEST MOUNTAINS/TRANS PECOS

CITY           SKY/WX    TMP DP  RH WIND       PRES   REMARKS
DRYDEN           N/A     47  18  31 W9        30.22R
EL PASO        CLEAR     49   7  18 W12       30.28S
FORT STOCKTON  CLEAR     45  16  31 SW10      30.22S
MARFA          PTCLDY    41   7  24 SW9       30.31R
$$

TXZ014-016-019-021>030-083-260300
TEXAS TECH WEST TEXAS MESONET/TEXAS PANHANDLE/NORTHERN SOUTH PLAINS

CITY           SKY/WX    TMP DP  RH WIND       PRES   REMARKS
ABERNATHY 5ENE   N/A     45  15  29 SW15      30.04S
AMARILLO 9NNE    N/A     37  17  44 W1        29.97S
AMARILLO 7SSE    N/A     31  14  48 SW8       29.98S WCI  24
AMHERST 1NE      N/A     43   8  23 SW9       30.03S
BOOTLEG 11WNW    N/A     43  11  26 W16       30.02S
CANADIAN 6E      N/A     42  16  34 SE2       29.95S
CAPROCK CYN SP   N/A     50  13  22 SW22      29.99F
CHILDRESS 2NNE   N/A     46  16  30 S13       30.00F
CLARENDON 2WSW   N/A     43  15  31 S12       29.96F
DIMMITT 2NE      N/A     43  11  27 SW13      30.00F
FLOYDADA 2NNE    N/A     42  11  27 SW9       30.02F
FRIONA 2NE       N/A     44  10  24 W15       30.01F
GOODLETT 3W      N/A     46  20  36 S12       30.01F
HART 3N          N/A     35  11  36 W8        30.01F WCI  29
HEREFORD 2NW     N/A     41  11  30 W12       30.00S
MCLEAN 1E        N/A     42  13  30 S9        29.95S
MEMPHIS 1NE      N/A     44  15  30 S3        29.99S
MULESHOE 2SSW    N/A     47   5  18 W14       30.03S
OLTON 6S         N/A     42  12  29 SW13      30.01F
PALO DURO SP     N/A     45  11  25 W13       29.98F
PAMPA 2E         N/A     40  14  34 SW7       29.96F
PLAINVIEW 1S     N/A     44  14  30 SW9       30.01S
SILVERTON 7ESE   N/A     44  15  31 SW14      29.99F
TULIA 2ENE       N/A     41  12  30 SW10      29.99F
TURKEY 2WSW      N/A     48  14  24 SW17      29.97F
UMBARGER 3NNE    N/A     37  13  37 SW12      29.99S WCI  29
$$

TXZ033>036-039>041-045>048-260300
TEXAS TECH WEST TEXAS MESONET/SOUTH PLAINS

CITY           SKY/WX    TMP DP  RH WIND       PRES   REMARKS
AIKEN 3WSW       N/A     41  15  34 SW10      30.03S
ANTON 6SSW       N/A     45  14  28 SW15      30.05S
BROWNFIELD 2S    N/A     43  13  29 SW12      30.08F
DENVR CTY 7WNW   N/A     41  10  27 SW13      30.10F
GAIL 2ESE        N/A     43  18  36 SW6       30.10F
LAMESA 2SE       N/A     43  18  36 SW12      30.10F
LEVELLAND 4S     N/A     44  12  27 SW12      30.06S
LUBBOCK 3WNW     N/A     48  13  24 SW16      30.06R
MORTON 1ENE      N/A     46   2  16 SW13      30.06S
ODONNELL 1N      N/A     43  17  35 SW12      30.09F
PLAINS 3N        N/A     42  12  29 SW10      30.09F
RALLS 1SE        N/A     45  13  27 SW12      30.06S
REESE CENTER     N/A     46  13  26 SW16      30.06R
SEAGRAVES 1SW    N/A     40  12  31 SW9       30.10F WCI  34
SEMINOLE 2NNE    N/A     46   9  22 SW10      30.11F
SLATON 2NE       N/A     46  13  27 SW16      30.06S
SNYDER 3E        N/A     46  20  36 S12       30.11F
SUNDOWN 8SW      N/A     43  11  28 SW13      30.07S
TAHOKA 3NNE      N/A     44  15  30 SW14      30.06F
WOLFFORTH 6SSW   N/A     46  13  27 SW13      30.07S
$$

TXZ031-032-036>038-042>044-260300-
TEXAS TECH WEST TEXAS MESONET/ROLLING PLAINS

CITY           SKY/WX    TMP DP  RH WIND       PRES   REMARKS
ASPERMONT 3NE    N/A     47  25  41 S9        30.09S
FLUVANNA 3WNW    N/A     44  18  34 S10       30.09F
GRAHAM 5SSW      N/A     47  15  28 SW9       30.07F
GUTHRIE 10WSW    N/A     47  19  32 S15       30.05S
HASKELL 1NW      N/A     47  29  50 S12       30.09F
KNOX CITY 3NW    N/A     47  26  43 S13       30.07F
LK A HENRY 1NW   N/A     49  18  28 SW12      30.08S
NORTHFIELD 1S    N/A     47  15  27 S12       30.00F
ODELL 4ENE       N/A     44  33  65 S12       30.03F
PADUCAH 10SW     N/A     42  20  41 S13       30.03F
POST 1NE         N/A     49  17  28 SW14      30.07S
RRING SPRGS 3N   N/A     47  12  24 SW15      30.02S
SEYMOUR 3NW      N/A     47  32  56 S9        30.07F
SPUR 1W          N/A     42  15  33 SW6       30.06R
WEINERT 2NNE     N/A     47  29  49 S10       30.08F
WHITE RVR 6NE    N/A     44  13  29 S13       30.05S
$$

TXZ052-054-060>062-072-078-127-140-154-169-260300-
TEXAS TECH WEST TEXAS MESONET/PERMIAN BASIN/
CONCHO VALLEY/BIG COUNTRY/EDWARDS PLATEAU

CITY           SKY/WX    TMP DP  RH WIND       PRES   REMARKS
COYANOSA 2N      N/A     47  12  23 S7        30.20F
JUNCTION 1SSW    N/A     41  23  48 S7        30.23R
MERTZON 3NNE     N/A     42  20  41 S3        30.21S
SAN ANGELO 7NW   N/A     47  19  32 SW6       30.19S
STRLNG CT 4WSW   N/A     47  20  33 S9        30.16F
ST LAWRNCE 5SW   N/A     44  14  29 S9        30.17F
SWEETWATR 11SW   N/A     43  19  38 S9        30.14F
WALL 1E          N/A     45  21  38 S8        30.19F
$$

TXZ055-058-074-075-080-082-260300-
TEXAS TECH WEST TEXAS MESONET/FAR WEST/SOUTHWEST MOUNTAINS/TRANS PECOS

CITY           SKY/WX    TMP DP  RH WIND       PRES   REMARKS
PRSMN GAP BBNP   N/A     49  14  25 S7        30.27R
GUADLPE MTN NP   N/A     43   1  17 NW36      30.21F
$$



USA.gov is the U.S. government's official web portal to all federal, state and local government web resources and services.